Molokai, HI

6:24 PM HST on April 29, 2017 (GMT -1000)
Molokai

Weather History for PHMK - April, 2013

Change the Weather History Date:

Thursday, April 4, 2013

  Actual Average Record
Temperature  
Mean Temperature 68 °F -  
Max Temperature 80 °F 79 °F 84 °F (2011)
Min Temperature 55 °F 65 °F 50 °F (1987)
Cooling Degree Days 2    
Growing Degree Days 18 (Base 50)    
Moisture  
Dew Point 58 °F    
Average Humidity 71    
Maximum Humidity 89    
Minimum Humidity 48    
Precipitation  
Precipitation 0.00 in - - ()
Sea Level Pressure  
Sea Level Pressure 30.08 in    
Wind  
Wind Speed 3 mph (NNE)    
Max Wind Speed 12 mph    
Max Gust Speed 16 mph    
Visibility 10 miles    
Events      
Averages and records for this station are not official NWS values.
T = Trace of Precipitation, MM = Missing Value Source: NWS Daily Summary

Daily Weather History Graph

Daily Weather History Graph

Search for Another Location

Airport or City:

Trip Planner

Search our weather history database for the weather conditions in past years. The results will help you decide how hot, cold, wet, or windy it might be!

Date:

Astronomy

Apr. 04, 2013 Rise Set
Actual Time 6:18 AM HST 6:44 PM HST
Civil Twilight 5:56 AM HST 7:06 PM HST
Nautical Twilight 5:29 AM HST 7:32 PM HST
Astronomical Twilight 5:03 AM HST 7:59 PM HST
Moon 2:12 AM HST (4/4) 1:52 PM HST (4/4)
Length of Visible Light 13h 10m
Length of Day
12h 25m
Waning Crescent, 31% of the Moon is Illuminated
Apr 4
Waning Crescent
Apr 9
New
Apr 18
First Quarter
Apr 25
Full
May 2
Last Quarter

Hourly Weather History & Observations

Time (HST) Temp. Heat Index Dew Point Humidity Pressure Visibility Wind Dir Wind Speed Gust Speed Precip Events Conditions
12:54 AM 60.1 °F - 55.9 °F 86% 30.09 in 10.0 mi Calm Calm - N/A   Clear
1:54 AM 63.0 °F - 57.9 °F 84% 30.06 in 10.0 mi NNE 4.6 mph - N/A   Clear
2:54 AM 60.1 °F - 55.0 °F 83% 30.05 in 10.0 mi Calm Calm - N/A   Clear
3:54 AM 57.0 °F - 54.0 °F 89% 30.05 in 10.0 mi Calm Calm - N/A   Clear
4:54 AM 55.9 °F - 52.0 °F 87% 30.06 in 10.0 mi Calm Calm - N/A   Clear
5:54 AM 55.9 °F - 52.0 °F 87% 30.07 in 10.0 mi Calm Calm - N/A   Clear
6:54 AM 59.0 °F - 54.0 °F 83% 30.09 in 10.0 mi Calm Calm - N/A   Clear
7:54 AM 68.0 °F - 59.0 °F 73% 30.11 in 10.0 mi East 3.5 mph - N/A   Clear
8:54 AM 71.1 °F - 55.0 °F 57% 30.12 in 10.0 mi South 3.5 mph - N/A   Clear
9:54 AM 75.0 °F - 54.0 °F 48% 30.11 in 10.0 mi Calm Calm - N/A   Clear
10:54 AM 78.1 °F - 57.0 °F 48% 30.10 in 10.0 mi NNE 6.9 mph - N/A   Clear
11:54 AM 79.0 °F - 61.0 °F 54% 30.09 in 10.0 mi North 9.2 mph - N/A   Clear
12:54 PM 78.1 °F - 60.1 °F 54% 30.06 in 10.0 mi NNE 10.4 mph 16.1 mph N/A   Partly Cloudy
1:54 PM 80.1 °F 81.1 °F 61.0 °F 52% 30.04 in 10.0 mi NNE 10.4 mph - N/A   Clear
2:54 PM 79.0 °F - 61.0 °F 54% 30.04 in 10.0 mi North 11.5 mph - N/A   Partly Cloudy
3:54 PM 79.0 °F - 60.1 °F 52% 30.03 in 10.0 mi NNE 6.9 mph - N/A   Partly Cloudy
4:54 PM 77.0 °F - 60.1 °F 56% 30.03 in 10.0 mi NNE 8.1 mph - N/A   Partly Cloudy
5:54 PM 73.9 °F - 62.1 °F 66% 30.05 in 10.0 mi NNE 4.6 mph - N/A   Clear
6:54 PM 70.0 °F - 63.0 °F 78% 30.07 in 10.0 mi NNE 5.8 mph - N/A   Clear
7:54 PM 69.1 °F - 62.1 °F 78% 30.09 in 10.0 mi NNE 5.8 mph - N/A   Clear
8:54 PM 66.9 °F - 62.1 °F 84% 30.11 in 10.0 mi Calm Calm - N/A   Clear
9:54 PM 68.0 °F - 62.1 °F 81% 30.12 in 10.0 mi NE 5.8 mph - N/A   Clear
10:54 PM 68.0 °F - 62.1 °F 81% 30.11 in 10.0 mi NE 6.9 mph - N/A   Clear
11:54 PM 68.0 °F - 61.0 °F 78% 30.10 in 10.0 mi NE 5.8 mph - N/A   Clear